Location: Zilina
(49.2167°N, 18.7333°E)
Time: 06:02:37
(UTC+02:00)

ISS - Pass Details

Date: 29 March 2018
Orbit: 403 x 406 km, 51.6° (Epoch: 23 April)

Event Time Altitude Azimuth Distance (km) Brightness Sun altitude
Rises 21:05:48 0° 266° (W) 2,332 1.0 -18.5°
Reaches altitude 10° 21:07:54 10° 270° (W) 1,472 -0.1 -18.8°
Maximum altitude 21:11:10 59° 351° (N) 476 -3.4 -19.3°
Enters shadow 21:11:46 49° 38° (NE) 540 -3.4 -19.3°
